Weather in Wisla

Poland     49°39′14″N   18°51′41″E
temp.,
°C
wind,
m/s
gust,
m/s
humid.,
%
clouds,
%
prec.,
mm/h
press.,
hPa
HPBL,
m
13 may, thu
thu1323:00+12ssw119566 0.0 100425
02:00+12sw1296100 1.3 100354
05:00+13w2399100 0.9 1002264
08:00+13w2298100 1.6 1001185
11:00+13wnw1295100 0.5 1000327
14:00+14wnw1190100 2.1 999396
17:00+14sw2392100 3.4 999455
20:00+11sw2396100 5.9 1000121
14 may, fri
fri1423:00+11wsw2398100 1.6 1001161
02:00+10wsw2397100 2.1 1002166
05:00+10sw2396100 0.1 1002162
08:00+9ssw2395100 0.2 1004236
11:00+10sw2391100 0.1 1005389
14:00+10wsw2594100 0.5 1007469
17:00+9wsw2393100 0.4 1008216
20:00+9s2294100 0.6 100974
15 may, sat
sat1523:00+7s239580 0.1 101064
02:00+7s3496100 0.1 101173
05:00+7s349539 0.0 101164
08:00+11s23855 0.0 1011255
11:00+16wsw226641 0.6 10101111
14:00+17wsw236199 1.9 10091381
17:00+15sw1274100 1.6 1008612
20:00+12s2289100 3.6 100818
16 may, sun
sun1623:00+10sse229299 0.6 100829
02:00+10s2294100 1.5 100839
05:00+10ssw1195100 1.4 100733
08:00+10s2695100 7.7 1008312
11:00+10w3597100 1.6 1010477
14:00+9sw2496100 6.1 1011203
17:00+14sw256828 0.3 10081158
20:00+10ssw22820 0.3 100926
17 may, mon
mon1723:00+7sse33925 0.0 101050
02:00+7s34929 0.0 101064
05:00+6sse3390100 0.0 101054
08:00+13ssw2466100 0.0 1009302
11:00+11w2494100 0.8 1009192
14:00+11s2492100 1.6 1009208
17:00+10w3696100 2.6 1010391
20:00+9sse2294100 6.1 101060